Weather History for KJMR - May, 2013

Change the Weather History Date:

Tuesday, May 7, 2013

  Actual Average Record
Temperature  
Mean Temperature 57 °F -  
Max Temperature 75 °F 65 °F 87 °F (1934)
Min Temperature 39 °F 38 °F 25 °F (1947)
Degree Days  
Heating Degree Days 8    
Growing Degree Days 7 (Base 50)    
Moisture  
Dew Point 41 °F    
Average Humidity 57    
Maximum Humidity 93    
Minimum Humidity 24    
Precipitation  
Precipitation 0.00 in - - ()
Sea Level Pressure  
Sea Level Pressure 30.03 in    
Wind  
Wind Speed 2 mph (South)    
Max Wind Speed 10 mph    
Max Gust Speed 16 mph    
Visibility 10 miles    
Events      
Averages and records for this station are not official NWS values.
T = Trace of Precipitation, MM = Missing Value Source: NWS Daily Summary

Daily Weather History Graph

Daily Weather History Graph

Search for Another Location

Airport or City:

Trip Planner

Search our weather history database for the weather conditions in past years. The results will help you decide how hot, cold, wet, or windy it might be!

Date:

Astronomy

May. 07, 2013 Rise Set
Actual Time 5:51 AM CDT 8:28 PM CDT
Civil Twilight 5:17 AM CDT 9:02 PM CDT
Nautical Twilight 4:34 AM CDT 9:45 PM CDT
Astronomical Twilight 3:45 AM CDT 10:35 PM CDT
Moon 4:32 AM CDT (5/7) 6:23 PM CDT (5/7)
Length of Visible Light 15h 45m
Length of Day
14h 37m
Waning Crescent, 5% of the Moon is Illuminated
May 7
Waning Crescent
May 9
New
May 17
First Quarter
May 24
Full
May 31
Last Quarter

Hourly Weather History & Observations

Time (CDT) Temp. Windchill Dew Point Humidity Pressure Visibility Wind Dir Wind Speed Gust Speed Precip Events Conditions
12:05 AM 46.4 °F - 42.8 °F 87% 30.05 in 10.0 mi Calm Calm - N/A   Clear
12:25 AM 46.4 °F - 42.8 °F 87% 30.06 in 10.0 mi Calm Calm - N/A   Clear
12:45 AM 46.4 °F 45.2 °F 42.8 °F 87% 30.06 in 10.0 mi East 3.5 mph - N/A   Clear
1:05 AM 46.4 °F - 42.8 °F 87% 30.06 in 10.0 mi Calm Calm - N/A   Clear
1:25 AM 46.4 °F - 42.8 °F 87% 30.06 in 10.0 mi Calm Calm - N/A   Clear
1:45 AM 46.4 °F - 42.8 °F 87% 30.06 in 10.0 mi Calm Calm - N/A   Clear
2:05 AM 46.4 °F - 42.8 °F 87% 30.06 in 10.0 mi Calm Calm - N/A   Clear
2:25 AM 46.4 °F - 42.8 °F 87% 30.05 in 10.0 mi Calm Calm - N/A   Clear
2:45 AM 46.4 °F - 42.8 °F 87% 30.05 in 10.0 mi Calm Calm - N/A   Clear
3:05 AM 46.4 °F - 42.8 °F 87% 30.05 in 10.0 mi Calm Calm - N/A   Clear
3:45 AM 46.4 °F - 42.8 °F 87% 30.05 in 10.0 mi Calm Calm - N/A   Clear
4:05 AM 46.4 °F - 42.8 °F 87% 30.05 in 10.0 mi Calm Calm - N/A   Clear
4:25 AM 44.6 °F - 42.8 °F 93% 30.05 in 10.0 mi Calm Calm - N/A   Clear
5:05 AM 41.0 °F - 39.2 °F 93% 30.06 in 7.0 mi Calm Calm - N/A   Clear
5:25 AM 41.0 °F - 39.2 °F 93% 30.06 in 10.0 mi Calm Calm - N/A   Clear
5:45 AM 42.8 °F - 41.0 °F 93% 30.06 in 7.0 mi Calm Calm - N/A   Clear
6:05 AM 41.0 °F - 39.2 °F 93% 30.07 in 10.0 mi Calm Calm - N/A   Clear
6:25 AM 39.2 °F - 37.4 °F 93% 30.07 in 10.0 mi Calm Calm - N/A   Clear
6:45 AM 44.6 °F - 42.8 °F 93% 30.07 in 10.0 mi Calm Calm - N/A   Clear
7:05 AM 46.4 °F - 44.6 °F 93% 30.08 in 10.0 mi Calm Calm - N/A   Clear
7:25 AM 48.2 °F - 46.4 °F 93% 30.08 in 10.0 mi Calm Calm - N/A   Clear
7:45 AM 51.8 °F - 44.6 °F 76% 30.08 in 10.0 mi Calm Calm - N/A   Clear
8:05 AM 53.6 °F - 44.6 °F 72% 30.08 in 10.0 mi Calm Calm - N/A   Clear
8:25 AM 55.4 °F - 44.6 °F 67% 30.08 in 10.0 mi Calm Calm - N/A   Clear
8:45 AM 59.0 °F - 46.4 °F 63% 30.08 in 10.0 mi Calm Calm - N/A   Clear
9:05 AM 62.6 °F - 46.4 °F 55% 30.08 in 10.0 mi Calm Calm - N/A   Clear
9:25 AM 66.2 °F - 46.4 °F 49% 30.07 in 10.0 mi Calm Calm - N/A   Clear
9:45 AM 66.2 °F - 46.4 °F 49% 30.07 in 10.0 mi Calm Calm - N/A   Clear
10:05 AM 68.0 °F - 46.4 °F 46% 30.07 in 10.0 mi Calm Calm - N/A   Clear
10:25 AM 69.8 °F - 48.2 °F 46% 30.07 in 10.0 mi SSE 4.6 mph - N/A   Scattered Clouds
10:51 AM 69.8 °F - 44.6 °F 40% 30.07 in 10.0 mi South 6.9 mph - N/A   Clear
11:11 AM 69.8 °F - 44.6 °F 40% 30.06 in 10.0 mi ESE 6.9 mph - N/A   Clear
11:31 AM 69.8 °F - 41.0 °F 35% 30.06 in 10.0 mi South 3.5 mph - N/A   Mostly Cloudy
11:51 AM 71.6 °F - 42.8 °F 35% 30.05 in 10.0 mi SSE 10.4 mph - N/A   Overcast
12:11 PM 71.6 °F - 41.0 °F 33% 30.05 in 10.0 mi SSE 5.8 mph - N/A   Scattered Clouds
12:31 PM 69.8 °F - 41.0 °F 35% 30.05 in 10.0 mi Calm Calm - N/A   Mostly Cloudy
12:51 PM 71.6 °F - 41.0 °F 33% 30.04 in 10.0 mi South 6.9 mph - N/A   Overcast
1:11 PM 73.4 °F - 41.0 °F 31% 30.03 in 10.0 mi SW 10.4 mph - N/A   Scattered Clouds
1:31 PM 71.6 °F - 37.4 °F 29% 30.03 in 10.0 mi SE 5.8 mph - N/A   Mostly Cloudy
1:51 PM 73.4 °F - 37.4 °F 27% 30.02 in 10.0 mi SW 10.4 mph - N/A   Mostly Cloudy
2:11 PM 73.4 °F - 37.4 °F 27% 30.02 in 10.0 mi WSW 5.8 mph - N/A   Scattered Clouds
2:31 PM 75.2 °F - 35.6 °F 24% 30.02 in 10.0 mi SSE 6.9 mph 16.1 mph N/A   Scattered Clouds
2:51 PM 73.4 °F - 37.4 °F 27% 30.01 in 10.0 mi SSE 10.4 mph - N/A   Scattered Clouds
3:11 PM 73.4 °F - 39.2 °F 29% 30.00 in 10.0 mi South 10.4 mph - N/A   Mostly Cloudy
3:31 PM 73.4 °F - 37.4 °F 27% 30.00 in 10.0 mi South 8.1 mph - N/A   Scattered Clouds
3:51 PM 73.4 °F - 37.4 °F 27% 30.00 in 10.0 mi South 10.4 mph - N/A   Mostly Cloudy
4:11 PM 73.4 °F - 37.4 °F 27% 29.99 in 10.0 mi SSE 4.6 mph - N/A   Mostly Cloudy
4:31 PM 75.2 °F - 37.4 °F 25% 29.99 in 10.0 mi South 10.4 mph - N/A   Mostly Cloudy
4:51 PM 75.2 °F - 35.6 °F 24% 29.98 in 10.0 mi SSE 3.5 mph - N/A   Mostly Cloudy
5:11 PM 73.4 °F - 35.6 °F 25% 29.98 in 10.0 mi SW 9.2 mph - N/A   Scattered Clouds
5:31 PM 73.4 °F - 35.6 °F 25% 29.98 in 10.0 mi South 9.2 mph - N/A   Mostly Cloudy
5:51 PM 73.4 °F - 39.2 °F 29% 29.98 in 10.0 mi SW 10.4 mph - N/A   Overcast
6:11 PM 73.4 °F - 37.4 °F 27% 29.98 in 10.0 mi SW 5.8 mph - N/A   Scattered Clouds
6:31 PM 73.4 °F - 39.2 °F 29% 29.97 in 10.0 mi SSW 9.2 mph - N/A   Clear
6:51 PM 71.6 °F - 39.2 °F 31% 29.97 in 10.0 mi South 4.6 mph - N/A   Mostly Cloudy
7:11 PM 73.4 °F - 37.4 °F 27% 29.97 in 10.0 mi SSE 4.6 mph - N/A   Overcast
7:31 PM 69.8 °F - 37.4 °F 31% 29.97 in 10.0 mi South 5.8 mph - N/A   Mostly Cloudy
7:51 PM 69.8 °F - 39.2 °F 33% 29.97 in 10.0 mi SSW 3.5 mph - N/A   Scattered Clouds
8:11 PM 69.8 °F - 39.2 °F 33% 29.97 in 10.0 mi South 3.5 mph - N/A   Clear
8:31 PM 66.2 °F - 37.4 °F 35% 29.97 in 10.0 mi SSE 3.5 mph - N/A   Clear
8:51 PM 60.8 °F - 41.0 °F 48% 29.98 in 10.0 mi Calm Calm - N/A   Clear
9:11 PM 59.0 °F - 41.0 °F 51% 29.99 in 10.0 mi Calm Calm - N/A   Clear
9:31 PM 55.4 °F - 42.8 °F 63% 29.99 in 10.0 mi Calm Calm - N/A   Clear
9:51 PM 55.4 °F - 42.8 °F 63% 29.99 in 10.0 mi Calm Calm - N/A   Clear
10:11 PM 51.8 °F - 42.8 °F 71% 29.99 in 10.0 mi Calm Calm - N/A   Clear
10:31 PM 50.0 °F - 41.0 °F 71% 29.99 in 10.0 mi Calm Calm - N/A   Clear
10:51 PM 50.0 °F - 41.0 °F 71% 29.99 in 10.0 mi Calm Calm - N/A   Clear
11:11 PM 50.0 °F - 42.8 °F 76% 29.99 in 10.0 mi Calm Calm - N/A   Clear
11:31 PM 50.0 °F - 42.8 °F 76% 29.99 in 10.0 mi Calm Calm - N/A   Clear
11:51 PM 48.2 °F - 41.0 °F 76% 29.99 in 10.0 mi Calm Calm - N/A   Clear